#timestamp,LO_Frequency,Hit,StdDev 
1598619615.8,286047000.4,N
1598619635.7,286046998.8,P
1598619655.5,286046998.7,N
1598619675.4,286046998.6,N
1598619695.2,286046999.9,N
1598619715.0,286047000.2,N
1598619715.9,286047000.2,N
1598619735.8,286047001.4,N
1598619755.6,286047004.1,Y
1598619775.5,286047004.0,P
1598619795.3,286047004.4,N
1598619815.1,286047001.3,N
1598619835.9,286047003.7,N
1598619855.7,286047001.3,N
1598619875.5,286047001.6,N
1598619895.4,286047002.6,N
1598619915.2,286047001.5,N
1598619935.1,286047002.6,N
1598619936.0,286047002.6,N
1598619955.8,286047002.3,N
1598619975.6,286047002.0,N
1598619995.5,286047000.0,N
1598620015.3,286047000.2,N
1598620035.1,286046999.7,N
1598620055.9,286046999.9,N
1598620075.7,286047001.1,N
1598620095.6,286047000.8,N
1598620115.4,286047000.7,N
1598620135.2,286046998.6,N
1598620155.1,286046998.1,N
1598620156.0,286046998.1,N
1598620175.8,286046998.2,N
1598620195.6,286046998.8,N
1598620215.5,286046996.9,N
1598620235.3,286046999.6,N
1598620255.2,286046999.3,N
1598620275.9,286046999.5,N
1598620295.7,286046999.4,N
1598620315.6,286046998.3,N
1598620335.4,286046998.1,N
1598620355.3,286046998.2,N
1598620375.1,286047001.2,N
1598620376.0,286047001.2,N
1598620395.8,286046998.6,N
1598620415.7,286047001.2,N
1598620435.5,286047001.1,N
1598620455.3,286047001.0,N
1598620475.2,286047000.5,N
1598620495.0,286047000.7,N
1598620495.9,286047000.7,N
1598620515.8,286046998.2,N
1598620535.6,286046998.5,N
1598620555.4,286046998.3,N
1598620575.3,286046998.7,N
1598620595.1,286046998.8,N
1598620615.9,286046998.3,N
1598620635.7,286046999.5,N
1598620655.5,286046998.7,N
1598620675.4,286046998.2,N
1598620695.2,286047000.8,N
1598620715.0,286046998.4,N
1598620715.9,286046998.4,N
1598620735.8,286046998.1,N
1598620755.6,286047001.2,N
1598620775.5,286047000.4,N
1598620795.3,286047001.1,N
1598620815.1,286047000.4,N
1598620835.9,286047000.8,N
1598620855.7,286047002.8,N
1598620875.6,286046999.9,N
1598620895.4,286047002.7,N
1598620915.2,286047000.2,N
1598620935.1,286047000.3,N
1598620936.0,286047000.3,N
1598620955.8,286047000.4,N
1598620975.6,286047000.2,N
1598620995.5,286047000.5,N
1598621015.3,286046999.8,N
1598621035.2,286047000.1,N
1598621055.9,286046999.9,N
1598621075.7,286047000.1,N
1598621095.6,286047000.2,N
1598621115.4,286047000.8,N
1598621135.2,286047000.4,N
1598621155.1,286047000.7,N
1598621156.0,286047000.7,N
1598621175.8,286046999.2,N
1598621195.7,286046998.8,N
1598621215.5,286046998.8,N
1598621235.3,286046998.6,N
1598621255.2,286047001.2,N
1598621275.9,286046998.2,N
1598621295.7,286047000.8,N
1598621315.6,286047000.4,N
1598621335.4,286047000.5,N
1598621355.2,286047001.1,N
1598621375.1,286046999.8,N
1598621376.0,286046999.8,N
1598621395.8,286047000.3,N
1598621415.7,286047000.6,N
1598621435.5,286047001.0,N
1598621455.3,286047001.0,N
1598621475.2,286047000.4,N
1598621495.0,286047002.6,Y
1598621495.9,286047002.6,P
1598621515.8,286047000.2,N
1598621535.6,286047002.4,N
1598621555.4,286047000.2,N
1598621575.3,286047002.5,N
1598621595.1,286046999.7,N
1598621615.8,286047004.4,Y
1598621635.7,286046999.9,P
1598621655.5,286047001.0,N
1598621675.4,286047000.4,N
1598621695.2,286046999.7,N
1598621715.0,286047000.0,N
1598621715.9,286047000.0,N
1598621735.8,286046998.1,Y
1598621755.6,286047000.8,P
1598621775.5,286046998.4,P
1598621795.3,286046998.1,N
1598621815.1,286046998.8,N
1598621835.9,286046998.8,N
1598621855.7,286046996.5,Y
1598621875.5,286047001.1,P
1598621895.4,286046998.6,N
1598621915.2,286046998.9,N
1598621935.1,286046998.4,N
1598621936.0,286046998.4,N
1598621955.8,286046998.4,N
1598621975.6,286046998.7,N
1598621995.5,286046998.4,N
1598622015.3,286047001.1,N
1598622035.1,286047000.7,N
1598622055.9,286046998.7,N
1598622075.7,286046998.7,N
1598622095.6,286046998.4,N
1598622115.4,286046998.5,N
1598622135.2,286046998.7,N
1598622155.1,286046998.9,N
1598622156.0,286046998.9,N
1598622175.8,286046999.0,N
1598622195.7,286047001.1,N
1598622215.5,286046998.2,N
1598622235.3,286047001.2,N
1598622255.2,286047001.1,N
1598622275.9,286047000.4,N
1598622295.7,286047000.6,N
1598622315.6,286047001.5,N
1598622335.4,286047001.7,N
1598622355.2,286047003.1,N
1598622375.1,286047003.1,N
1598622376.0,286047003.1,N
1598622395.8,286047003.7,N
1598622415.7,286047005.9,Y
1598622435.5,286047003.0,P
1598622455.3,286047003.6,N
1598622475.2,286047003.4,N
1598622495.0,286047004.2,N
1598622495.9,286047004.2,N
1598622515.8,286047005.7,Y
1598622535.6,286047002.8,P
1598622555.4,286046999.7,N
1598622575.3,286047000.1,N
1598622595.1,286046999.9,N
1598622615.9,286046999.7,N
1598622635.7,286047002.8,N
1598622655.5,286047002.7,N
1598622675.4,286046999.8,N
1598622695.2,286047002.5,N
1598622715.0,286047001.6,N
1598622715.9,286047001.6,N
1598622735.8,286047001.9,N
1598622755.6,286047001.9,N
1598622775.5,286047001.9,N
1598622795.3,286047002.8,N
1598622815.1,286047002.6,N
1598622835.9,286047001.6,N
1598622855.7,286047002.1,N
1598622875.5,286047001.8,N
1598622895.4,286047001.5,N
1598622915.2,286047001.5,N
1598622935.1,286047004.0,Y
1598622936.0,286047004.0,P
1598622955.8,286047001.6,N
1598622975.6,286047002.4,N
1598622995.5,286047002.8,N
1598623015.3,286047000.1,N
1598623035.2,286046999.7,N
1598623055.9,286046999.9,N
1598623075.7,286046999.9,N
1598623095.6,286047000.1,N
1598623115.4,286047002.7,N
1598623135.3,286047001.5,N
1598623155.1,286047004.2,Y
1598623156.0,286047004.2,P
1598623175.8,286047002.4,N
1598623195.7,286047002.5,N
